SR9WXJ Weather Reports


time (UTC)temp
F
wind
direction
speed
knots
gust
knots
rain 1hr
in
rain 24hr
in
rain mn
in
humidity
%
barometer
mb
20260508012924 50 74 0.0 0.0 0.00 0.00 0.00 100
20260508011713 50 69 0.0 0.0 0.00 0.00 0.00 100
20260508010505 50 61 0.0 0.0 0.00 0.00 0.00 100
20260508005257 50 86 0.0 0.0 0.00 0.00 0.00 100
20260508004046 51 108 0.0 0.0 0.00 0.00 0.00 100
20260508001936 51 94 1.7 1.7 0.00 0.00 0.00 100 802.2
20260508000728 51 94 1.7 1.7 0.00 0.00 0.00 100 802.2
20260507235516 51 97 1.7 1.7 0.00 0.00 0.00 100 802.2
20260507234308 51 97 1.7 1.7 0.00 0.00 0.00 100 802.2
20260507233100 51 80 1.7 1.7 0.00 0.00 0.00 100 802.2
20260507231849 51 80 1.7 1.7 0.00 0.00 0.00 100 802.2
20260507230638 51 237 1.7 1.7 0.00 0.00 0.00 100 802.2
20260507225428 51 237 1.7 1.7 0.00 0.00 0.00 100 802.2
20260507224230 51 335 1.7 1.7 0.00 0.00 0.00 100 802.2
20260507223021 51 15 1.7 2.6 0.00 0.00 0.00 100 802.2
20260507221810 51 73 1.7 2.6 0.00 0.00 0.00 100 802.2
20260507220601 51 127 1.7 1.7 0.00 0.00 0.00 100 802.2
20260507215353 51 71 1.7 1.7 0.00 0.00 0.00 100 802.2
20260507214145 51 107 1.7 1.7 0.00 0.00 0.00 100 802.2
20260507212934 51 20 1.7 1.7 0.00 0.00 0.00 100 802.2
20260507211722 51 74 1.7 1.7 0.00 0.00 0.00 100 802.2
20260507210514 51 4 1.7 1.7 0.00 0.00 0.00 100 802.2
20260507205316 51 161 1.7 1.7 0.00 0.00 0.00 100 802.2
20260507204104 51 354 1.7 1.7 0.00 0.00 0.00 100 802.2
20260507202856 51 94 1.7 1.7 0.00 0.00 0.00 100 802.2
20260507201647 50 39 1.7 2.6 0.00 0.00 0.00 100 802.2
20260507200439 50 97 1.7 1.7 0.00 0.00 0.00 100 802.2
20260507195229 50 91 1.7 1.7 0.00 0.00 0.00 100 802.2
20260507194020 50 116 1.7 1.7 0.00 0.00 0.00 100 802.2
20260507192811 50 47 1.7 1.7 0.00 0.00 0.00 100 802.2
20260507191604 50 353 1.7 1.7 0.00 0.00 0.00 100 802.2
20260507190348 50 63 1.7 1.7 0.00 0.00 0.00 100 802.2
20260507185136 50 56 1.7 1.7 0.00 0.00 0.00 100 802.2
20260507183928 50 56 1.7 1.7 0.00 0.00 0.00 100 802.2
20260507182718 50 40 1.7 1.7 0.00 0.00 0.00 100 802.2
20260507182218 50 67 1.7 1.7 0.00 0.00 0.00 100 802.2
20260507181704 50 97 1.7 1.7 0.00 0.00 0.00 100 802.2
20260507181205 50 53 1.7 1.7 0.00 0.00 0.00 100 802.2
20260507180651 51 13 1.7 1.7 0.00 0.00 0.00 100 802.2
20260507175629 51 55 3.5 4.3 0.00 0.00 0.00 100 802.2
20260507174618 51 71 1.7 2.6 0.00 0.00 0.00 100 802.2
20260507174107 51 223 1.7 1.7 0.00 0.00 0.00 100 802.2
20260507173556 51 86 1.7 1.7 0.00 0.00 0.00 100 802.2
20260507173045 51 82 1.7 1.7 0.00 0.00 0.00 100 802.2
20260507172545 51 154 1.7 1.7 0.00 0.00 0.00 100 802.2
20260507172034 50 86 1.7 1.7 0.00 0.00 0.00 100 802.2
20260507171525 51 100 1.7 1.7 0.00 0.00 0.00 100 802.2
20260507171012 51 97 1.7 1.7 0.00 0.00 0.00 100 802.2
20260507170500 51 107 1.7 2.6 0.00 0.00 0.00 100 802.2
20260507170000 51 243 1.7 2.6 0.00 0.00 0.00 100 802.2
20260507165449 51 267 1.7 1.7 0.00 0.00 0.00 100 802.2
20260507164938 51 111 1.7 1.7 0.00 0.00 0.00 100 802.2
20260507163416 51 107 1.7 1.7 0.00 0.00 0.00 100 799.1
20260507162905 51 108 1.7 1.7 0.00 0.00 0.00 100 795.6
20260507162354 51 97 1.7 1.7 0.00 0.00 0.00 100 795.6
20260507161856 51 102 1.7 2.6 0.00 0.00 0.00 100 795.6
20260507161341 51 100 1.7 2.6 0.00 0.00 0.00 100 795.6
20260507160831 51 83 1.7 2.6 0.00 0.00 0.00 100 795.6
20260507160320 52 108 1.7 1.7 0.00 0.00 0.00 100 795.6
20260507155809 52 107 1.7 2.6 0.00 0.00 0.00 100 795.6
20260507155308 52 121 1.7 3.5 0.00 0.00 0.00 100 795.6
20260507154758 53 104 1.7 2.6 0.00 0.00 0.00 100 795.6
20260507154246 53 97 1.7 1.7 0.00 0.00 0.00 100 795.6
20260507153734 53 93 1.7 1.7 0.00 0.00 0.00 100 795.6
20260507153233 53 95 1.7 2.6 0.00 0.00 0.00 100 795.6
20260507152722 54 108 1.7 2.6 0.00 0.00 0.00 100 795.6
20260507152214 54 118 1.7 1.7 0.00 0.00 0.00 100 795.6
20260507151700 54 97 1.7 1.7 0.00 0.00 0.00 100 795.6
20260507151159 54 335 1.7 1.7 0.00 0.00 0.00 100 795.6
20260507150648 55 335 1.7 1.7 0.00 0.00 0.00 100 795.6
20260507150136 55 335 1.7 1.7 0.00 0.00 0.00 100 795.6
20260507145625 55 349 1.7 1.7 0.00 0.00 0.00 100 795.6
20260507145125 55 4 1.7 1.7 0.00 0.00 0.00 100 795.6
20260507144614 55 4 1.7 1.7 0.00 0.00 0.00 100 795.6
20260507144103 55 4 1.7 1.7 0.00 0.00 0.00 100 795.6
20260507143553 55 4 1.7 1.7 0.00 0.00 0.00 100 795.6
20260507143041 54 45 1.7 1.7 0.00 0.00 0.00 100 795.6
20260507142543 53 93 1.7 1.7 0.00 0.00 0.00 100 795.6
20260507142029 53 131 1.7 1.7 0.00 0.00 0.00 100 795.6
20260507141518 53 277 1.7 1.7 0.00 0.00 0.00 100 795.6
20260507141007 53 94 1.7 1.7 0.00 0.00 0.00 100 795.6
20260507140507 53 84 1.7 3.5 0.00 0.00 0.00 100 795.6
20260507135956 53 72 1.7 1.7 0.00 0.00 0.00 100 795.6
20260507135445 53 96 1.7 1.7 0.00 0.00 0.00 100 795.6
20260507134934 53 99 1.7 1.7 0.00 0.00 0.00 100 795.6
20260507134423 53 152 1.7 1.7 0.00 0.00 0.00 100 795.6
20260507133923 53 107 1.7 1.7 0.00 0.00 0.00 100 795.6
20260507133412 53 112 1.7 1.7 0.00 0.00 0.00 100 795.6
20260507132904 53 130 1.7 1.7 0.00 0.00 0.00 100 795.6
20260507132350 52 101 1.7 2.6 0.00 0.00 0.00 100 795.6
20260507131849 53 98 3.5 4.3 0.00 0.00 0.00 100 795.6
20260507131339 54 84 1.7 2.6 0.00 0.00 0.00 100 795.6
20260507130317 55 34 2.6 3.5 0.00 0.00 0.00 100 795.6
20260507125812 57 336 3.5 5.2 0.00 0.00 0.00 100 795.6
20260507124750 57 296 6.1 7.0 0.00 0.00 0.00 100 795.6
20260507124239 59 306 1.7 1.7 0.00 0.00 0.00 100 795.6
20260507123738 59 292 1.7 2.6 0.00 0.00 0.00 100 795.6
20260507122714 59 61 1.7 3.5 0.00 0.00 0.00 100 794.3
20260507122204 59 118 1.7 1.7 0.00 0.00 0.00 100 794.3
20260507121703 58 57 1.7 2.6 0.00 0.00 0.00 100 793.3
20260507121153 58 57 1.7 2.6 0.00 0.00 0.00 100 793.3
20260507120641 57 62 2.6 2.6 0.00 0.00 0.00 100 793.3
20260507120131 58 37 1.7 2.6 0.00 0.00 0.00 100 793.3
20260507115620 58 5 2.6 3.5 0.00 0.00 0.00 100 793.3
20260507115120 58 61 2.6 3.5 0.00 0.00 0.00 100 793.3
20260507114608 58 62 2.6 3.5 0.00 0.00 0.00 100 793.3
20260507114058 58 86 1.7 2.6 0.00 0.00 0.00 100 793.3
20260507113549 59 84 1.7 2.6 0.00 0.00 0.00 100 793.3
20260507113046 59 33 1.7 1.7 0.00 0.00 0.00 100 793.3
20260507112535 59 44 4.3 5.2 0.00 0.00 0.00 100 793.3
20260507112024 60 266 1.7 2.6 0.00 0.00 0.00 100 793.3
20260507111513 59 59 2.6 3.5 0.00 0.00 0.00 100 793.3
20260507111002 60 15 1.7 1.7 0.00 0.00 0.00 100 793.3
20260507110502 61 357 1.7 3.5 0.00 0.00 0.00 100 793.3
20260507105951 62 0 1.7 1.7 0.00 0.00 0.00 100 793.3
20260507105439 62 330 2.6 3.5 0.00 0.00 0.00 100 793.3
20260507104928 62 302 2.6 4.3 0.00 0.00 0.00 100 793.3
20260507104427 62 305 3.5 5.2 0.00 0.00 0.00 100 793.3
20260507103918 62 298 6.1 7.8 0.00 0.00 0.00 100 793.3
20260507103403 63 293 3.5 5.2 0.00 0.00 0.00 100 793.3
20260507102351 63 288 5.2 7.0 0.00 0.00 0.00 100 793.3
20260507101839 63 302 5.2 7.8 0.00 0.00 0.00 100 793.3
20260507101327 63 283 1.7 1.7 0.00 0.00 0.00 100 795.2
20260507100816 63 262 2.6 2.6 0.00 0.00 0.00 100 795.2
20260507100315 65 227 1.7 2.6 0.00 0.00 0.00 100 793.0
20260507095805 65 216 2.6 3.5 0.00 0.00 0.00 100 793.0
20260507095253 65 194 2.6 2.6 0.00 0.00 0.00 100 790.4
20260507094743 64 155 2.6 2.6 0.00 0.00 0.00 100 790.4
20260507094234 64 168 2.6 2.6 0.00 0.00 0.00 100 790.4
20260507093731 64 118 1.7 1.7 0.00 0.00 0.00 100 790.4
20260507093219 65 237 1.7 1.7 0.00 0.00 0.00 100 790.4
20260507092709 65 281 1.7 1.7 0.00 0.00 0.00 100 790.4
20260507092157 65 180 2.6 3.5 0.00 0.00 0.00 100 790.4
20260507091647 64 152 2.6 2.6 0.00 0.00 0.00 100 790.4
20260507091146 64 296 1.7 1.7 0.00 0.00 0.00 100 790.4
20260507090635 64 296 1.7 1.7 0.00 0.00 0.00 100 790.4
20260507090124 64 186 1.7 3.5 0.00 0.00 0.00 100 790.4
20260507085614 64 146 2.6 2.6 0.00 0.00 0.00 100 790.4
20260507085113 64 157 2.6 2.6 0.00 0.00 0.00 100 790.4
20260507084050 64 179 2.6 2.6 0.00 0.00 0.00 100 790.4
20260507083539 63 232 1.7 2.6 0.00 0.00 0.00 100 790.4
20260507082527 64 196 2.6 3.5 0.00 0.00 0.00 100 790.4
20260507082016 64 180 2.6 2.6 0.00 0.00 0.00 100 790.4
20260507081505 64 151 3.5 3.5 0.00 0.00 0.00 100 790.4
20260507080954 64 185 3.5 5.2 0.00 0.00 0.00 100 790.4
20260507080453 63 199 3.5 5.2 0.00 0.00 0.00 100 789.2
20260507075942 63 269 2.6 5.2 0.00 0.00 0.00 100 789.2
20260507075431 64 226 1.7 4.3 0.00 0.00 0.00 100 789.2
20260507074923 63 217 3.5 3.5 0.00 0.00 0.00 100 789.2
20260507073904 63 157 2.6 3.5 0.00 0.00 0.00 100 789.2
20260507073354 62 166 1.7 1.7 0.00 0.00 0.00 100 789.2
20260507072853 62 149 2.6 5.2 0.00 0.00 0.00 100 789.2
20260507072342 62 165 2.6 3.5 0.00 0.00 0.00 100 789.2
20260507071831 62 135 2.6 2.6 0.00 0.00 0.00 100 789.2
20260507071321 62 177 2.6 6.1 0.00 0.00 0.00 100 789.2
20260507070820 62 186 2.6 5.2 0.00 0.00 0.00 100 789.2
20260507070310 62 165 2.6 5.2 0.00 0.00 0.00 100 789.2
20260507065758 62 179 2.6 4.3 0.00 0.00 0.00 100 789.2
20260507065250 62 152 1.7 3.5 0.00 0.00 0.00 100 789.2
20260507064236 61 168 2.6 5.2 0.00 0.00 0.00 100 789.2
20260507063724 61 154 1.7 3.5 0.00 0.00 0.00 100 789.2
20260507063214 61 174 2.6 4.3 0.00 0.00 0.00 100 789.2
20260507062702 61 138 2.6 5.2 0.00 0.00 0.00 100 789.2
20260507062203 61 137 2.6 2.6 0.00 0.00 0.00 100 789.2
20260507061651 60 152 2.6 2.6 0.00 0.00 0.00 100 789.2
20260507061141 60 166 2.6 4.3 0.00 0.00 0.00 100 789.2
20260507060629 60 157 2.6 4.3 0.00 0.00 0.00 100 789.2
20260507060119 60 160 1.7 2.6 0.00 0.00 0.00 100 789.2
20260507055621 60 168 2.6 5.2 0.00 0.00 0.00 100 789.2
20260507055107 60 161 1.7 3.5 0.00 0.00 0.00 100 789.2
20260507053545 60 178 2.6 4.3 0.00 0.00 0.00 100 789.2
20260507052523 59 175 2.6 4.3 0.00 0.00 0.00 100 789.2
20260507052012 59 159 1.7 3.5 0.00 0.00 0.00 100 789.2
20260507051501 59 157 1.7 2.6 0.00 0.00 0.00 100 789.2
20260507051001 59 182 1.7 2.6 0.00 0.00 0.00 100 789.2
20260507050450 59 180 1.7 3.5 0.00 0.00 0.00 100 789.2
20260507045937 59 213 1.7 3.5 0.00 0.00 0.00 100 789.2
20260507045433 59 190 3.5 3.5 0.00 0.00 0.00 100 789.2
20260507044922 59 107 3.5 3.5 0.00 0.00 0.00 100 789.2
20260507044411 59 153 1.7 1.7 0.00 0.00 0.00 100 789.2
20260507043901 59 162 2.6 2.6 0.00 0.00 0.00 100 789.2
20260507043400 59 168 1.7 2.6 0.00 0.00 0.00 100 789.2
20260507042849 59 168 2.6 2.6 0.00 0.00 0.00 100 789.2
20260507042338 59 148 1.7 1.7 0.00 0.00 0.00 100 789.2
20260507041827 59 174 1.7 1.7 0.00 0.00 0.00 100 789.2
20260507040817 58 166 2.6 5.2 0.00 0.00 0.00 100 789.2
20260507040308 58 164 3.5 4.3 0.00 0.00 0.00 100 789.2
20260507035754 57 110 1.7 1.7 0.00 0.00 0.00 100 789.2
20260507035243 57 189 1.7 1.7 0.00 0.00 0.00 100 789.2
20260507034743 57 73 2.6 2.6 0.00 0.00 0.00 100 789.2
20260507034232 57 177 1.7 1.7 0.00 0.00 0.00 100 789.2
20260507033721 58 139 1.7 1.7 0.00 0.00 0.00 100 789.2
20260507033210 58 128 0.9 1.7 0.00 0.00 0.00 100 789.2
20260507032659 58 165 1.7 1.7 0.00 0.00 0.00 100 789.2
20260507032158 57 153 1.7 1.7 0.00 0.00 0.00 100 789.2
20260507031648 57 124 1.7 1.7 0.00 0.00 0.00 100 789.2
20260507031136 57 148 1.7 1.7 0.00 0.00 0.00 100 782.9
20260507030627 57 146 1.7 1.7 0.00 0.00 0.00 100 782.9
20260507030123 57 164 1.7 1.7 0.00 0.00 0.00 100 782.9
20260507025613 57 167 2.6 2.6 0.00 0.00 0.00 100 782.9
20260507025101 57 176 1.7 2.6 0.00 0.00 0.00 100 782.9
20260507024551 57 216 1.7 1.7 0.00 0.00 0.00 100 782.9
20260507024039 57 38 2.6 3.5 0.00 0.00 0.00 100 782.9
20260507023540 57 131 2.6 2.6 0.00 0.00 0.00 100 782.9
20260507022225 59 216 1.7 2.6 0.00 0.00 0.00 100 782.9
20260507021011 58 122 2.6 4.3 0.00 0.00 0.00 100 782.9
20260507015758 59 12 1.7 2.6 0.00 0.00 0.00 100 782.9
20260507014559 59 85 2.6 3.5 0.00 0.00 0.00 100 782.9
20260507013350 59 157 2.6 5.2 0.00 0.00 0.00 100 782.9